Overview Statistics Trail Chart Weather Telemetry Raw packets
 

This is the latest recevied weather packets stored in our database for station/object VE3EP-1. If no packets are shown the sender has not sent any weather packets the latest 10 day(s).

<< 25 26 27 28 29 30 31 >>
Time Temp. Humidity Pressure Rain* Wind** Luminosity Snow
1788042248 21.11° C 72% 1022.3 hPa 0 mm - - -
1788041648 21.11° C 70% 1022.3 hPa 0 mm - - -
1788041047 21.67° C 68% 1022.3 hPa 0 mm - - -
1788040447 22.22° C 66% 1022.3 hPa 0 mm - - -
1788039847 22.22° C 65% 1022.4 hPa 0 mm - - -
1788039247 22.22° C 63% 1022.8 hPa 0 mm - - -
1788038648 22.22° C 61% 1022.8 hPa 0 mm - - -
1788038048 22.22° C 59% 1023.1 hPa 0 mm - - -
1788037450 23.33° C 55% 1023.4 hPa 0 mm - - -
1788036247 23.33° C 56% 1023.8 hPa 0 mm - - -
1788035648 23.33° C 56% 1023.7 hPa 0 mm - - -
1788035047 23.33° C 54% 1023.7 hPa 0 mm - - -
1788034447 23.33° C 50% 1024.1 hPa 0 mm - - -
1788033847 22.22° C 56% 1024 hPa 0 mm - - -
1788033247 23.33° C 54% 1024.2 hPa 0 mm - - -
1788032047 22.78° C 51% 1024.4 hPa 0 mm - - -
1788031449 22.22° C 50% 1024.5 hPa 0 mm - - -
1788030247 22.22° C 53% 1024.8 hPa 0 mm - - -
1788029648 22.78° C 55% 1024.8 hPa 0 mm - - -
1788029049 22.22° C 58% 1024.9 hPa 0 mm - - -
1788028447 22.78° C 59% 1025 hPa 0 mm - - -
1788027847 22.22° C 59% 1025.1 hPa 0 mm - - -
1788027247 22.22° C 58% 1025.3 hPa 0 mm - - -
1788026647 22.22° C 58% 1025.6 hPa 0 mm - - -
1788026047 22.22° C 56% 1025.3 hPa 0 mm - - -

* Rain latest hour (hover to see other rain measurements)
** Current wind speed in m/s (hover to see current wind gust speed)